When you browse on this site, cookies collect data to enhance your experience and personalize the content and advertising you see.
Visit our Privacy Policy to learn more. By continuing to use the site, you agree to this use of cookies and data.
  • In Romania
  • List of Countries
  • For 7 days
  • Water Temperature
  • Satellite Maps
  • Weather Map
  • Weather Widgets
  • user-avatar
    Login

    Hourly Weather Ostrechiha

    Today, 23 February, Saturday

    Time Temperature Precipitation Wind Pressure Humidity
    00:00 -15°C° 0 mm 3 mps 754 mmHg 91%
    01:00 -15°C° 0 mm 2 mps 754 mmHg 92%
    02:00 -16°C° 0 mm 2 mps 754 mmHg 95%
    03:00 -15°C° 0 mm 2 mps 754 mmHg 93%
    04:00 -15°C° 0 mm 2 mps 753 mmHg 91%
    05:00 -15°C° 0 mm 2 mps 753 mmHg 90%
    06:00 -15°C° 0 mm 2 mps 753 mmHg 86%
    07:00 -14°C° 0 mm 2 mps 753 mmHg 82%
    08:00 -13°C° 0 mm 3 mps 752 mmHg 78%
    09:00 -12°C° 0 mm 3 mps 752 mmHg 76%
    10:00 -11°C° 0 mm 4 mps 751 mmHg 75%
    11:00 -10°C° 0 mm 4 mps 750 mmHg 73%
    12:00 -10°C° 0.4 mm 4 mps 749 mmHg 79%
    13:00 -11°C° 0.4 mm 5 mps 749 mmHg 85%
    14:00 -11°C° 0 mm 5 mps 748 mmHg 91%
    15:00 -11°C° 0.5 mm 5 mps 747 mmHg 91%
    16:00 -10°C° 0.5 mm 4 mps 747 mmHg 92%
    17:00 -10°C° 0.5 mm 4 mps 746 mmHg 92%
    18:00 -9°C° 0.2 mm 4 mps 746 mmHg 92%
    19:00 -8°C° 0.2 mm 3 mps 746 mmHg 93%
    20:00 -7°C° 0.2 mm 3 mps 745 mmHg 93%
    21:00 -6°C° 0 mm 2 mps 745 mmHg 94%
    22:00 -5°C° 0 mm 2 mps 745 mmHg 95%
    23:00 -5°C° 0 mm 2 mps 745 mmHg 96%

    Tomorrow, 24 February, Sunday

    Time Temperature Precipitation Wind Pressure Humidity
    00:00 -4°C° 0 mm 2 mps 745 mmHg 97%
    01:00 -2°C° 0 mm 1 mps 745 mmHg 97%
    02:00 -1°C° 0 mm 1 mps 745 mmHg 97%
    03:00 -1°C° 0.1 mm 1 mps 745 mmHg 98%
    04:00 0°C° 0.1 mm 1 mps 745 mmHg 98%
    05:00 -2°C° 0.1 mm 2 mps 745 mmHg 98%
    06:00 -1°C° 0.1 mm 2 mps 745 mmHg 98%
    07:00 -1°C° 0.1 mm 2 mps 745 mmHg 98%
    08:00 +1°C° 0.1 mm 2 mps 745 mmHg 98%
    09:00 +1°C° 0.1 mm 2 mps 745 mmHg 98%
    10:00 0°C° 0.1 mm 3 mps 745 mmHg 99%
    11:00 0°C° 0.1 mm 3 mps 745 mmHg 99%
    12:00 0°C° 0 mm 3 mps 745 mmHg 99%
    13:00 0°C° 0 mm 3 mps 745 mmHg 98%
    14:00 0°C° 0 mm 3 mps 744 mmHg 98%
    15:00 0°C° 0 mm 3 mps 744 mmHg 97%
    16:00 +1°C° 0 mm 2 mps 744 mmHg 97%
    17:00 -1°C° 0 mm 2 mps 743 mmHg 97%
    18:00 -1°C° 0.1 mm 3 mps 743 mmHg 96%
    19:00 -1°C° 0.1 mm 3 mps 742 mmHg 96%
    20:00 -1°C° 0.1 mm 3 mps 741 mmHg 96%
    21:00 -2°C° 0.1 mm 4 mps 740 mmHg 95%
    22:00 -1°C° 0.1 mm 4 mps 739 mmHg 95%
    23:00 -1°C° 0.1 mm 4 mps 738 mmHg 94%

    Day after tomorrow, 25 February, Monday

    Time Temperature Precipitation Wind Pressure Humidity
    00:00 -1°C° 0.1 mm 4 mps 738 mmHg 93%
    01:00 -1°C° 0.1 mm 4 mps 737 mmHg 92%
    02:00 -1°C° 0.1 mm 4 mps 737 mmHg 90%
    03:00 -1°C° 0.1 mm 5 mps 736 mmHg 89%
    04:00 -1°C° 0.1 mm 5 mps 736 mmHg 88%
    05:00 -1°C° 0.1 mm 5 mps 736 mmHg 87%
    06:00 -1°C° 0 mm 5 mps 736 mmHg 87%
    07:00 -1°C° 0 mm 5 mps 735 mmHg 87%
    08:00 -2°C° 0 mm 5 mps 735 mmHg 87%
    09:00 -2°C° 0.1 mm 5 mps 735 mmHg 87%
    10:00 -2°C° 0.1 mm 5 mps 735 mmHg 87%
    11:00 -1°C° 0.1 mm 5 mps 734 mmHg 87%
    12:00 -1°C° 0.1 mm 5 mps 734 mmHg 87%
    13:00 -1°C° 0.1 mm 5 mps 734 mmHg 88%
    14:00 -1°C° 0.1 mm 5 mps 733 mmHg 88%
    15:00 -1°C° 0.1 mm 4 mps 733 mmHg 89%
    16:00 -1°C° 0.1 mm 4 mps 733 mmHg 89%
    17:00 -2°C° 0.1 mm 4 mps 733 mmHg 90%
    18:00 -2°C° 0.1 mm 4 mps 734 mmHg 90%
    19:00 -2°C° 0.1 mm 4 mps 734 mmHg 91%
    20:00 -2°C° 0.1 mm 4 mps 734 mmHg 91%
    21:00 -2°C° 0 mm 4 mps 734 mmHg 90%
    22:00 -2°C° 0 mm 4 mps 734 mmHg 90%
    23:00 -2°C° 0 mm 4 mps 735 mmHg 89%

    26 February, Tuesday

    Time Temperature Precipitation Wind Pressure Humidity
    00:00 -2°C° 0 mm 4 mps 735 mmHg 89%
    01:00 -3°C° 0 mm 4 mps 734 mmHg 90%
    02:00 -3°C° 0 mm 4 mps 734 mmHg 91%
    03:00 -3°C° 0.1 mm 4 mps 734 mmHg 91%
    04:00 -3°C° 0.1 mm 4 mps 734 mmHg 91%
    05:00 -2°C° 0.1 mm 4 mps 733 mmHg 92%
    06:00 -2°C° 0.1 mm 4 mps 733 mmHg 91%
    07:00 -2°C° 0.1 mm 4 mps 733 mmHg 91%
    08:00 -2°C° 0.1 mm 4 mps 734 mmHg 91%
    09:00 -2°C° 0.1 mm 4 mps 734 mmHg 90%
    10:00 -2°C° 0.1 mm 4 mps 734 mmHg 88%
    11:00 -2°C° 0.1 mm 4 mps 735 mmHg 87%
    12:00 -2°C° 0.1 mm 4 mps 735 mmHg 86%
    13:00 -2°C° 0.1 mm 4 mps 736 mmHg 86%
    14:00 -2°C° 0.1 mm 4 mps 736 mmHg 85%
    15:00 -2°C° 0.1 mm 4 mps 737 mmHg 85%
    16:00 -3°C° 0.1 mm 4 mps 738 mmHg 84%
    17:00 -4°C° 0.1 mm 4 mps 739 mmHg 84%
    18:00 -4°C° 0.1 mm 4 mps 739 mmHg 83%
    19:00 -5°C° 0.1 mm 4 mps 740 mmHg 83%
    20:00 -7°C° 0.1 mm 4 mps 740 mmHg 82%
    21:00 -8°C° 0 mm 4 mps 741 mmHg 82%
    22:00 -9°C° 0 mm 4 mps 741 mmHg 82%
    23:00 -10°C° 0 mm 4 mps 742 mmHg 83%

    27 February, Wednesday

    Time Temperature Precipitation Wind Pressure Humidity
    00:00 -10°C° 0 mm 3 mps 742 mmHg 85%
    01:00 -10°C° 0 mm 3 mps 742 mmHg 88%
    02:00 -10°C° 0 mm 2 mps 742 mmHg 90%
    03:00 -10°C° 0 mm 2 mps 742 mmHg 90%
    04:00 -10°C° 0 mm 2 mps 742 mmHg 90%
    05:00 -12°C° 0 mm 2 mps 741 mmHg 90%
    06:00 -12°C° 0 mm 2 mps 741 mmHg 90%
    07:00 -12°C° 0 mm 2 mps 741 mmHg 90%
    08:00 -10°C° 0 mm 1 mps 740 mmHg 90%
    09:00 -9°C° 0 mm 1 mps 739 mmHg 88%
    10:00 -8°C° 0 mm 1 mps 739 mmHg 85%
    11:00 -7°C° 0 mm 1 mps 738 mmHg 83%
    12:00 -8°C° 0.1 mm 2 mps 737 mmHg 84%
    13:00 -7°C° 0.1 mm 2 mps 736 mmHg 85%
    14:00 -7°C° 0.1 mm 2 mps 736 mmHg 86%
    15:00 -7°C° 0 mm 2 mps 735 mmHg 88%
    16:00 -6°C° 0 mm 2 mps 735 mmHg 90%
    17:00 -6°C° 0 mm 2 mps 734 mmHg 92%
    18:00 -6°C° 0 mm 2 mps 734 mmHg 93%
    19:00 -5°C° 0 mm 2 mps 734 mmHg 94%
    20:00 -5°C° 0 mm 2 mps 733 mmHg 95%
    21:00 -4°C° 0.1 mm 2 mps 732 mmHg 95%
    22:00 -4°C° 0.1 mm 3 mps 732 mmHg 94%
    23:00 -2°C° 0.1 mm 3 mps 731 mmHg 94%

    28 February, Thursday

    Time Temperature Precipitation Wind Pressure Humidity
    00:00 -2°C° 0.1 mm 3 mps 731 mmHg 94%
    01:00 -2°C° 0.1 mm 3 mps 730 mmHg 94%
    02:00 -2°C° 0.1 mm 3 mps 730 mmHg 94%
    03:00 -2°C° 0 mm 3 mps 729 mmHg 94%
    04:00 -2°C° 0 mm 3 mps 728 mmHg 94%
    05:00 -2°C° 0 mm 3 mps 728 mmHg 94%
    06:00 -2°C° 0 mm 3 mps 727 mmHg 94%
    07:00 -2°C° 0 mm 3 mps 727 mmHg 93%
    08:00 -2°C° 0 mm 3 mps 726 mmHg 93%
    09:00 -2°C° 0 mm 3 mps 725 mmHg 92%
    10:00 -2°C° 0 mm 2 mps 725 mmHg 92%
    11:00 -1°C° 0 mm 2 mps 724 mmHg 91%
    12:00 -1°C° 0.1 mm 2 mps 724 mmHg 92%
    13:00 -1°C° 0.1 mm 2 mps 723 mmHg 93%
    14:00 -1°C° 0.1 mm 2 mps 722 mmHg 94%
    15:00 +1°C° 0.1 mm 1 mps 722 mmHg 95%
    16:00 0°C° 0.1 mm 1 mps 722 mmHg 96%
    17:00 0°C° 0.1 mm 1 mps 721 mmHg 97%
    18:00 -1°C° 0 mm 1 mps 721 mmHg 97%
    19:00 -1°C° 0 mm 1 mps 721 mmHg 97%
    20:00 -2°C° 0 mm 0 mps 721 mmHg 97%
    21:00 -2°C° 0 mm 0 mps 721 mmHg 97%
    22:00 -3°C° 0 mm 0 mps 721 mmHg 97%
    23:00 -4°C° 0 mm 0 mps 721 mmHg 96%
    Show more